Powrót do katalogu

DELTA 1 DEB

AktywnyPO
NORAD 37635·DEBRIS·🇺🇸 United States

Wystrzelony Mar 5, 1978 z Vandenberg Space Force Base

Loading…

Następne Przeloty (najbliższe 24 godziny)

TLE

ŚwieżeSource: Space-Track

Epoka: Sep 13, 2026, 08:50 UTC

1 37635U 78026HW  26256.36837906  .00000790  00000-0  34129-3 0  9998
2 37635  99.1754 285.4035 0047415 177.8876 194.9479 14.26850632684382

Śledź DELTA 1 DEB w czasie rzeczywistym z AllMySat

Download on the App Store